Flag for U.S.A. Weather past 2 weeks in Charlottesville, Virginia, U.S.A.

Now
87 °F

Scattered clouds.


Feels Like: 95 °F
Forecast: 70 / 85 °F
Wind: 6 mph from Southeast

Location: Charlottesville-Albemarle Airport

Current Time: Jul 28, 2015 at 4:46:06 PM

Latest Report: Jul 28, 2015 at 3:53 PM


Visibility: 10 mi

Pressure: 29.95 "Hg

Humidity: 63%

Dew point: 73 °F

Location of CharlottesvilleLocation

Historic Weather in Charlottesville — Graph

°F

Charlottesville temperature yesterday

Maximum temperature yesterday: 85 °F (at 1:53 PM)
Minimum temperature yesterday: 71 °F (at 6:53 AM)
Average temperature yesterday: 76 °F

Past Weeks' High & Low Weather Summary

 TemperatureHumidityPressure
High92 °F (Jul 19, 2:53 PM)97% (Jul 14, 1:53 AM)30.10 "Hg (Jul 14, 1:53 AM)
Low62 °F (Jul 25, 4:53 AM)34% (Jul 22, 12:53 PM)29.54 "Hg (Jul 14, 6:53 PM)
Average77 °F72%29.88 "Hg
* Reported Jul 13 2:01 PM — Jul 28 2:53 PM, Charlottesville, Weather by CustomWeather, © 2015

Note: Actual official high and low records may vary slightly from our data, if they occured in-between our weather recording intervals... More about our weather records

Advertising

Charlottesville weather history for previous 24 hours

 ConditionsComfort  
Time TempWeatherWind HumidityBarometerVisibility
2:53 PM
Tue, Jul 28
86 °FPartly sunny.6 mph67%29.95 "Hg10 mi
1:53 PM85 °FScattered clouds.5 mph65%29.96 "Hg10 mi
12:53 PM85 °FPassing clouds.5 mph68%29.99 "Hg10 mi
11:53 AM81 °FPartly sunny.6 mph74%30.01 "Hg10 mi
10:53 AM78 °FLow clouds.5 mph82%30.01 "Hg7 mi
9:53 AM76 °FMostly cloudy.3 mph85%30.01 "Hg4 mi
8:53 AM72 °FFog.No wind97%30.02 "Hg2 mi
7:53 AM72 °FFog.3 mph93%30.01 "Hg0 mi
6:53 AM71 °FFog.No wind93%30.00 "Hg0 mi
5:53 AM71 °FFog.No wind96%29.98 "Hg1 mi
4:53 AM72 °FFog.No wind93%29.98 "Hg4 mi
3:53 AM72 °FFog.No wind93%29.99 "Hg1 mi
2:53 AM71 °FFog.3 mph96%30.00 "Hg0 mi
1:53 AM72 °FFog.No wind97%30.00 "Hg5 mi
12:53 AM71 °FFog.No wind96%30.01 "Hg2 mi
12:02 AM72 °FFog.No wind93%30.03 "Hg1 mi
11:00 PM
Mon, Jul 27
73 °FFog.No wind94%30.03 "Hg6 mi
9:53 PM73 °FPassing clouds.3 mph94%29.99 "Hg10 mi
8:53 PM74 °FSunny.3 mph88%29.98 "Hg10 mi
7:53 PM75 °FSunny.3 mph88%29.96 "Hg10 mi
6:53 PM75 °FScattered clouds.3 mph88%29.96 "Hg10 mi
5:53 PM74 °FLight rain. Mostly cloudy.No wind85%29.95 "Hg10 mi
4:53 PM75 °FRain. Fog.3 mph90%29.96 "Hg4 mi
4:03 PM77 °FStrong thunderstorms. Fog.9 mph90%30.00 "Hg2 mi
Weather by CustomWeather, © 2015

See weather overviewHow to use our weather pages